O3B MPOWER A

Last updated on Tue Jan 14 2025 00:02:04 GMT+0000 (Coordinated Universal Time)

1 62362U 24244A 25003.14684061 .00000050 00000+0 -44606-3 0 9993 2 62362 8.8498 231.8780 1926468 227.4255 114.6524 7.30126103 1186
UTC large
Height (km)
Speed (km/s)
/
Latitude / Longitude
Inclination (degrees)
Orbital Period (minutes)
Azimuth
Elevation
Range (km)
Doppler Factor

Next 0 passes for location: London (51.5072 / 0.1276)

Sorry there are no passes over London.